Temperature
16 16 16 16 16 16 16 16 16 16 16 16 16 16 16 16 16 16 16 16 16 16 16 16 16 16 15 15 15 15 15 15 15 15 14 14 14 14
15 15 15 15 15 15 15 15 15 15 15 16 16 16 16 16 16 15 15 15 16 16 16 16 15 15 15 15 15 15 15 15 14 14 14 14 14 14
15 15 15 15 15 15 15 15 15 15 15 15 15 15 15 15 15 15 15 15 15 15 15 15 15 15 15 15 14 14 14 14 14 14 14 14 14 14
14 14 14 14 14 14 14 14 14 14 14 14 14 14 14 15 15 15 15 15 15 15 15 15 15 15 14 14 14 14 14 14 14 14 14 14 14 13
13 13 14 14 14 14 14 14 14 14 14 14 14 14 14 14 14 14 14 14 14 14 14 14 14 14 14 14 14 14 14 14 13 13 13 13 13 13
13 13 13 13 13 13 13 13 13 13 13 13 14 14 14 14 14 14 14 14 14 14 14 14 14 14 14 13 13 13 13 13 13 13 13 13 13 12
13 13 13 13 13 13 13 13 13 13 13 13 13 13 13 13 13 13 13 13 13 13 13 13 13 13 13 13 13 13 13 13 12 12 12 12 12 12
12 12 12 12 12 12 12 12 12 13 13 13 13 13 13 13 13 13 13 13 12 12 12 12 12 12 12 12 12 12 12 12 12 12 11 11 11 11
12 12 12 12 12 12 12 12 12 12 13 13 13 13 13 13 13 13 13 13 13 12 12 12 11 12 11 11 11 11 11 11 11 11 11 11 10 10
12 12 12 12 12 12 12 12 12 12 13 13 13 13 13 13 13 13 13 13 12 12 12 11 11 11 10 10 10 10 10 10 10 10 10 10 10 9
11 12 12 12 12 12 12 12 12 12 12 13 13 13 13 13 13 13 13 13 12 11 11 11 10 10 10 10 10 10 10 10 10 10 9 9 9 8
11 11 11 12 12 12 12 12 12 12 12 12 13 13 13 13 13 13 13 13 12 11 11 11 11 10 9 9 9 9 9 9 9 9 9 8 8 8
10 11 11 11 12 12 12 12 12 12 12 12 12 12 12 12 12 12 12 13 12 12 11 11 11 10 10 9 8 8 8 8 8 8 8 8 8 7
10 11 11 11 12 12 12 12 12 12 12 12 12 12 12 12 12 12 12 12 12 12 11 11 11 11 11 10 9 8 7 7 7 7 7 7 8 8
10 10 11 11 11 12 12 12 12 12 12 12 12 12 12 12 12 12 12 12 12 11 11 11 11 11 10 10 9 8 7 7 7 7 7 7 7 7
10 10 11 11 11 11 12 12 12 12 12 12 12 12 12 12 12 12 12 12 11 11 11 11 11 10 10 10 9 8 7 7 7 6 6 7 7 7
10 10 10 11 11 11 11 12 12 12 12 12 12 12 11 11 11 11 11 11 11 11 11 11 10 10 10 9 9 8 7 7 7 7 6 6 6 7
10 10 10 11 11 11 12 12 12 12 12 12 12 11 11 11 11 11 10 10 10 10 10 10 10 9 9 8 8 8 7 7 7 7 6 6 6 7
10 10 10 10 11 11 11 12 12 12 11 11 11 11 11 11 11 10 10 10 10 9 9 9 9 8 8 8 8 8 7 7 7 6 6 6 6 6
10 10 10 10 11 11 11 11 11 11 11 11 11 11 11 11 10 10 10 10 9 9 9 8 8 8 8 9 9 8 8 7 7 7 7 6 6 6
10 10 10 10 10 11 11 11 11 11 11 11 11 11 10 10 10 10 10 9 9 9 9 8 8 8 8 8 8 8 8 8 7 7 7 7 7 6
10 10 10 10 10 10 10 10 10 10 10 10 10 10 10 10 10 10 10 9 9 9 9 9 9 8 8 8 8 8 8 8 8 8 7 7 7 7
10 10 10 10 10 10 10 10 10 10 10 10 10 10 10 10 10 9 9 9 9 9 9 9 9 8 8 7 7 7 7 7 7 8 7 7 7 7
Wind_Speed
4 6 6 5 6 6 5 5 6 6 6 4 2 1 2 7 13 11 12 17 18 17 15 14 13 11 9 8 6 4 4 3 3 3 4 4 4 5
1 2 3 3 4 5 5 4 5 5 5 4 3 2 1 4 9 6 7 15 17 17 15 14 13 12 10 8 7 5 4 3 2 2 2 3 4 5
2 1 1 1 2 3 4 4 4 4 4 2 2 3 3 3 4 4 7 10 11 14 14 13 12 11 10 8 6 5 4 2 1 1 1 2 3 4
3 3 2 1 2 3 4 5 4 4 4 4 3 2 3 4 4 3 3 7 8 11 12 11 10 9 8 7 6 5 4 2 2 1 1 2 3 4
3 3 2 2 2 3 4 4 4 4 3 4 3 2 2 3 4 3 3 4 9 11 12 12 12 12 11 10 8 7 6 6 5 5 6 6 7 8
4 3 3 3 3 3 4 4 4 5 4 5 4 3 2 3 4 4 4 4 6 10 14 17 19 19 16 14 12 11 11 11 11 12 12 13 13 14
4 4 4 5 6 4 4 5 5 4 4 4 4 3 3 4 4 4 6 8 7 7 9 10 12 13 14 15 15 16 16 16 17 17 18 19 19 18
3 4 5 5 7 8 8 7 5 5 4 4 3 4 4 4 4 6 8 7 4 5 8 8 9 9 11 13 16 18 18 19 19 19 20 20 19 18
3 3 4 5 6 5 7 8 6 5 3 3 4 4 4 5 6 7 7 6 6 7 8 7 7 9 11 14 17 18 18 18 18 18 17 17 17 16
5 5 5 5 5 6 6 6 7 6 4 4 4 3 3 4 6 7 9 11 10 6 5 5 5 6 9 12 15 17 17 16 16 15 13 13 13 14
6 7 6 6 7 8 8 8 7 6 9 11 10 9 9 10 11 11 11 12 8 4 3 4 5 6 5 5 12 14 15 15 14 12 10 8 8 10
4 6 9 7 7 8 7 6 6 4 5 6 6 7 8 10 12 9 9 11 8 4 4 5 6 5 4 3 5 10 12 13 14 14 14 13 8 7
4 4 4 6 6 7 7 5 5 4 5 6 6 7 7 7 6 7 7 7 6 4 6 5 5 4 4 4 2 4 7 7 8 10 13 16 17 15
5 4 4 6 7 7 6 6 6 6 5 6 7 7 7 7 8 8 10 10 9 7 8 6 5 5 5 4 3 2 2 5 7 6 8 10 12 14
4 6 6 6 5 6 7 7 5 4 5 6 7 6 6 7 7 7 9 13 15 15 12 9 5 6 6 5 5 4 2 2 4 4 5 5 4 5
3 4 5 6 6 7 5 4 3 4 5 6 6 5 5 6 6 6 6 7 8 8 13 18 14 8 6 7 6 4 4 3 1 2 3 3 8 11
3 1 1 2 4 4 3 4 4 5 5 4 5 5 5 5 4 4 5 6 6 5 5 6 15 17 11 6 5 5 4 3 2 1 1 1 2 9
4 3 4 4 4 4 4 4 4 5 5 5 5 5 5 5 4 4 5 6 7 6 5 4 4 5 5 6 6 4 3 3 2 1 1 1 2 4
6 5 5 4 4 4 4 4 4 4 4 5 5 4 5 5 4 4 4 5 6 5 4 4 3 3 3 3 2 4 3 2 1 1 2 2 2 4
4 4 4 3 3 3 3 3 4 4 4 4 4 4 4 4 4 4 4 4 5 4 3 2 2 2 2 5 4 1 3 3 2 1 2 2 2 4
3 3 2 2 2 2 2 3 4 4 4 5 5 4 4 4 3 4 5 5 3 3 4 3 2 2 1 5 5 3 1 3 3 2 1 2 2 2
3 3 2 2 2 2 2 3 4 4 4 4 4 4 3 4 4 5 5 3 2 3 5 3 2 1 1 2 3 5 4 3 4 4 4 4 3 2
3 3 3 2 2 1 1 2 4 4 4 4 4 3 3 3 3 3 3 3 4 5 6 4 2 1 2 2 3 4 6 5 4 3 5 13 15 14
Wind_Direction
232 221 215 209 203 197 189 179 171 187 208 205 194 190 128 123 156 173 173 184 184 186 189 192 192 192 190 189 187 184 185 184 198 220 242 262 286 301
234 230 214 205 198 190 187 187 183 175 188 189 187 167 133 142 161 180 176 185 189 189 190 192 193 193 192 192 190 184 181 185 205 231 260 279 292 303
43 37 225 177 182 180 178 179 181 169 169 163 162 157 156 149 148 171 154 160 179 186 186 186 186 187 188 189 188 182 173 172 186 236 314 328 326 327
54 46 38 126 165 162 164 168 168 163 156 154 152 158 164 153 147 150 149 157 150 168 169 167 166 164 160 154 150 146 140 129 111 82 42 19 7 2
77 76 62 82 133 149 155 158 157 153 136 142 150 152 147 145 137 141 132 115 111 124 121 115 115 112 111 112 113 111 108 102 94 85 76 69 63 57
80 82 80 91 108 125 135 142 145 146 144 146 146 149 151 153 142 141 122 102 104 105 98 97 94 89 88 91 94 95 94 92 89 86 83 80 77 75
90 94 89 97 113 117 123 128 133 138 145 150 152 151 157 156 162 150 129 110 99 108 107 99 93 84 77 76 82 88 90 89 88 87 85 83 80 77
72 96 104 97 100 105 112 113 122 136 150 153 159 161 171 169 150 140 136 133 119 113 104 89 84 80 70 74 84 88 90 90 89 88 87 85 82 80
49 87 105 106 102 99 98 99 90 86 113 150 154 162 162 165 151 151 151 137 120 126 109 95 86 83 73 74 85 89 91 91 89 88 88 89 89 87
38 56 90 98 99 106 101 89 71 54 72 105 115 115 122 146 151 145 129 112 107 111 110 104 100 91 82 74 82 89 92 93 92 89 87 91 95 95
46 47 67 85 93 101 99 94 86 74 72 90 100 103 99 104 121 122 126 128 124 115 101 105 124 112 98 91 87 93 97 98 94 89 86 91 120 118
59 70 63 72 80 92 99 95 89 84 89 94 93 95 92 99 119 131 138 136 131 127 139 122 150 137 117 118 131 116 104 101 97 88 76 65 76 141
51 67 58 61 74 81 91 96 92 83 77 78 86 82 78 81 89 100 111 132 130 119 149 135 156 141 121 132 142 156 153 145 123 98 82 72 68 70
44 56 59 58 76 89 86 91 88 81 78 83 80 76 76 77 81 84 89 85 88 108 136 138 143 146 128 129 146 160 161 160 156 148 128 101 86 75
56 54 60 62 75 87 91 97 95 88 93 94 93 89 87 88 84 80 75 73 67 67 70 74 106 129 131 135 144 150 128 79 99 120 137 143 130 94
65 68 65 66 77 92 95 94 92 102 111 106 101 98 95 95 98 102 98 89 76 55 50 58 71 94 107 116 126 135 135 130 87 95 115 117 117 107
356 35 71 80 85 91 94 93 95 101 104 103 103 100 94 89 91 97 106 101 100 98 74 57 71 76 75 93 114 119 122 125 138 120 112 147 154 137
32 68 70 65 70 84 99 99 97 102 109 108 102 104 108 107 99 87 97 112 117 117 114 113 100 80 66 46 47 115 123 144 165 199 201 173 195 164
55 61 65 64 67 75 88 100 106 109 108 109 112 112 110 107 104 102 102 112 122 130 142 155 152 136 142 147 8 46 109 141 162 239 235 185 186 192
60 66 69 67 70 78 87 98 106 108 107 110 110 107 108 111 112 113 107 113 128 131 134 120 94 97 153 159 156 126 74 101 99 348 301 275 228 174
82 77 80 86 89 91 96 104 106 107 106 101 99 100 104 109 111 108 105 103 115 141 144 137 146 160 83 89 104 131 150 128 137 148 85 21 342 308
108 100 84 86 91 90 86 100 107 107 109 107 109 103 99 106 118 125 139 159 180 137 125 135 159 139 123 164 173 167 177 206 210 211 211 199 176 225
124 118 109 88 81 89 101 127 133 130 127 125 124 119 112 106 118 133 141 146 133 129 131 148 175 212 220 185 149 155 172 182 196 221 254 239 232 239
Height
1499 1501 1504 1507 1509 1512 1515 1519 1522 1524 1526 1529 1532 1534 1537 1540 1543 1545 1548 1551 1554 1556 1558 1561 1562 1564 1565 1566 1567 1568 1569 1569 1570 1570 1570 1570 1570 1569
1496 1497 1499 1502 1504 1507 1510 1513 1516 1519 1521 1524 1527 1530 1533 1536 1539 1542 1545 1547 1550 1553 1555 1558 1560 1562 1563 1564 1565 1566 1567 1567 1568 1568 1568 1567 1567 1567
1492 1494 1495 1497 1499 1502 1504 1507 1510 1514 1517 1520 1523 1526 1529 1532 1535 1538 1541 1544 1547 1550 1552 1555 1557 1559 1560 1562 1563 1564 1564 1565 1565 1565 1565 1565 1564 1564
1491 1491 1492 1493 1495 1497 1500 1502 1505 1509 1512 1515 1519 1522 1526 1529 1532 1535 1538 1541 1543 1546 1549 1551 1554 1556 1558 1559 1560 1561 1562 1562 1563 1563 1562 1562 1561 1561
1490 1490 1490 1491 1492 1494 1496 1499 1502 1505 1508 1512 1515 1519 1522 1526 1529 1532 1535 1538 1541 1543 1546 1548 1551 1553 1555 1557 1558 1559 1559 1560 1560 1560 1559 1559 1558 1557
1490 1490 1490 1490 1491 1492 1494 1496 1499 1502 1505 1509 1513 1516 1519 1523 1526 1529 1533 1536 1538 1541 1543 1546 1548 1550 1552 1554 1555 1556 1557 1557 1557 1557 1557 1556 1555 1555
1491 1491 1491 1490 1491 1492 1493 1495 1497 1500 1503 1506 1510 1513 1517 1520 1523 1527 1531 1534 1537 1539 1542 1544 1546 1548 1550 1552 1553 1554 1554 1555 1555 1555 1555 1554 1554 1553
1492 1492 1492 1491 1492 1492 1494 1495 1498 1500 1503 1505 1508 1511 1515 1518 1521 1524 1528 1532 1536 1539 1541 1544 1546 1548 1549 1550 1552 1553 1553 1553 1554 1554 1554 1553 1553 1553
1493 1493 1492 1493 1493 1494 1495 1497 1499 1501 1504 1506 1508 1510 1513 1516 1519 1522 1526 1530 1533 1537 1540 1543 1546 1547 1549 1550 1551 1552 1553 1554 1554 1554 1554 1554 1553 1552
1493 1493 1493 1494 1495 1496 1497 1499 1501 1503 1504 1506 1508 1510 1512 1515 1518 1521 1525 1529 1533 1537 1540 1543 1545 1547 1549 1550 1552 1553 1554 1554 1554 1554 1554 1554 1553 1552
1493 1494 1494 1495 1496 1498 1499 1501 1503 1504 1506 1507 1509 1510 1512 1515 1517 1520 1524 1528 1532 1537 1540 1542 1545 1547 1550 1551 1552 1553 1554 1554 1554 1555 1554 1554 1553 1552
1494 1494 1495 1496 1498 1500 1501 1503 1505 1506 1508 1509 1511 1512 1514 1516 1519 1522 1525 1528 1532 1536 1540 1542 1544 1547 1550 1552 1553 1554 1554 1554 1554 1554 1554 1553 1552 1551
1495 1496 1496 1498 1499 1501 1503 1505 1507 1509 1510 1511 1513 1515 1517 1518 1521 1524 1527 1531 1533 1536 1539 1542 1544 1547 1548 1550 1552 1553 1554 1554 1554 1554 1554 1553 1552 1552
1496 1497 1497 1499 1501 1503 1505 1507 1509 1511 1513 1514 1516 1518 1520 1522 1524 1526 1529 1532 1535 1537 1540 1542 1543 1545 1547 1549 1551 1552 1553 1553 1553 1553 1553 1552 1552 1551
1498 1498 1499 1501 1503 1505 1508 1510 1512 1514 1516 1517 1519 1521 1523 1525 1527 1529 1532 1534 1536 1538 1540 1542 1543 1544 1546 1548 1549 1550 1552 1553 1553 1553 1553 1552 1551 1550
1500 1500 1502 1503 1505 1508 1510 1512 1514 1516 1518 1520 1522 1524 1526 1528 1530 1532 1533 1535 1537 1538 1540 1542 1543 1544 1545 1547 1548 1549 1550 1551 1552 1552 1552 1552 1551 1550
1502 1503 1505 1507 1508 1510 1512 1515 1517 1519 1521 1523 1525 1527 1529 1530 1532 1534 1535 1536 1537 1538 1540 1541 1543 1544 1545 1546 1547 1548 1549 1549 1550 1551 1551 1551 1550 1549
1505 1506 1508 1509 1511 1512 1514 1517 1519 1521 1523 1525 1527 1529 1530 1532 1533 1535 1536 1537 1537 1538 1540 1541 1542 1544 1545 1546 1548 1547 1548 1548 1549 1550 1550 1550 1549 1548
1508 1509 1510 1511 1513 1515 1517 1519 1521 1523 1525 1527 1528 1530 1531 1533 1534 1535 1536 1537 1538 1539 1540 1541 1542 1543 1544 1545 1546 1547 1547 1547 1548 1549 1549 1549 1548 1548
1511 1511 1512 1514 1515 1517 1519 1521 1523 1524 1526 1528 1529 1531 1532 1533 1534 1535 1536 1537 1538 1538 1539 1540 1541 1542 1543 1544 1545 1546 1546 1546 1547 1547 1547 1547 1547 1547
1513 1514 1515 1516 1517 1519 1521 1522 1524 1525 1527 1528 1530 1531 1532 1533 1534 1535 1535 1536 1537 1537 1538 1539 1540 1541 1542 1543 1544 1544 1545 1545 1545 1545 1545 1545 1545 1544
1515 1516 1517 1518 1519 1520 1522 1523 1525 1526 1527 1528 1529 1530 1531 1532 1533 1533 1534 1534 1535 1536 1536 1538 1539 1539 1541 1541 1542 1542 1542 1543 1543 1543 1543 1543 1543 1542
1516 1517 1518 1519 1520 1521 1522 1524 1525 1526 1527 1527 1528 1529 1530 1530 1531 1531 1532 1533 1534 1534 1535 1536 1537 1537 1539 1540 1540 1540 1540 1541 1541 1541 1541 1541 1541 1540